sat.trackr.live / text

‹ back to catalog

STARLINK-35185

NORAD 65608 · 2025-207S

PAYLOAD ACTIVE UNKNOWN

§ Identity

Operator
Country
US
Launch date
2025-09-13
Launch site
AFWTR
Launch vehicle
Mass (kg)
RCS (m²)

Purposes: comms

External: N2YO · Heavens-Above · Gunter

§ Orbital elements

Epoch: 2026-09-20T22:00:03.000096Z

Period
93.91 min
Inclination
97.2853°
Eccentricity
0.0001768
Mean motion
15.33440483 rev/d
Perigee alt
464.3 km
Apogee alt
466.8 km
Semi-major
6,843.7 km
B*
-5.6024e-4
RAAN
326.4740°
Arg perigee
90.6258°
Mean anomaly
279.9335°
Rev number
579

§ Raw data

STARLINK-351851 65608U 25207S   26263.91670139 -.00018117  00000+0 -56024-3 0  99952 65608  97.2853 326.4740 0001768  90.6258 279.9335 15.33440483  5793

JSON: /api/v1/satellites/65608 · /tle

For live sub-satellite position, see the globe view (requires WebGL).

§ Visibility from observer

Set your observer location to see the next 7 days of passes ≥ 10°. The values pass through the URL so the page stays shareable.

No JS? Fill the form by hand. The geolocation button needs JavaScript.